Location: Clover
(42.5131°N, 114.6874°W)
Time: 15:01:58
(UTC+00:00)

ARIANE 6 FM1 Upper Stage - Pass Details

Date: 27 January 2026
Orbit: 522 x 608 km, 62.0° (Epoch: 17 February)

Event Time Altitude Azimuth Distance (km) Brightness Sun altitude
Rises 03:11:38 0° 277° (W) 2,691 7.4 -27.0°
Reaches altitude 10° 03:15:32 10° 314° (NW) 1,785 5.7 -27.7°
Maximum altitude 03:16:38 11° 331° (NNW) 1,722 5.4 -27.9°
Enters shadow 03:17:17 11° 340° (NNW) 1,741 5.4 -28.0°
